Location: Newark
(56.0692°N, 115.8617°E)
Time: 12:36:38
(UTC+00:00)

Vanguard 2 Rocket - Pass Details

Date: 27 May 2020
Orbit: 556 x 3325 km, 32.9° (Epoch: 14 July)

Event Time Altitude Azimuth Distance (km) Brightness Sun altitude
Rises 11:01:32 0° 246° (WSW) 5,311 11.5 11.3°
Reaches altitude 10° 11:05:16 10° 235° (SW) 4,693 11.1 10.8°
Maximum altitude 11:16:24 29° 184° (S) 4,244 10.2 9.4°
Drops below altitude 10° 11:31:04 10° 135° (SE) 6,230 10.6 7.5°
Sets 11:37:07 0° 126° (SE) 7,309 10.8 6.8°
